Lexington Weather

Lexington, Massachusetts, USA

44°F
5/12/2021 4:06am 
  • Lexington Conditions: Clear
  • Temperature: 44.4°F / 6.9°CColder 1.1°F than last hour.
  • Dew Point: 32.5°FIncreased 0.5°Fsince last hour.
  • Relative Humidity: 63%Increased 4.0% since last hour.
  • Wind: Wind from WNW WNW Calm, 10-min avg: 1 mph, gust: 7 mph
  • Barometer: 29.91 in Steady
  • Visibility: 10 miles
  • Rain Today: 0.00 in
  •   

Regional Weather Roundup
for Boston / Norton, MA

        
000
ASUS41 KBOX 080104
RWRBOX

REGIONAL WEATHER ROUNDUP
NATIONAL WEATHER SERVICE BOSTON/NORTON MA
900 PM EDT FRI MAY 07 2021

NOTE:  "FAIR" INDICATES FEW OR NO CLOUDS BELOW 12,000 FEET WITH NO 
SIGNIFICANT WEATHER AND/OR OBSTRUCTIONS TO VISIBILITY.

MAZALL-080200-
EASTERN MASSACHUSETTS
  
CITY           SKY/WX    TMP DP  RH WIND       PRES   REMARKS
BOSTON         CLOUDY    49  38  65 SE7       29.95S                  
BEVERLY        PTCLDY    47  37  68 E3        29.94S                  
LAWRENCE       CLEAR     48  31  51 CALM      29.96S                  
BEDFORD        PTCLDY    48  30  49 E3        29.93S                  
BLUE HILL        N/A     46  30  53 E10       29.91F                  
NORWOOD        PTCLDY    45  31  58 NE3       29.93F                  
MARSHFIELD     PTCLDY    48  43  81 CALM      29.92F                  
PLYMOUTH       PTCLDY    48  35  60 NE5       29.91F                  
TAUNTON        PTCLDY    47  30  51 CALM      29.91F                  
NEW BEDFORD    PTCLDY    47  33  58 NE7       29.90F                  
$$

MAZALL-080200-
CAPE COD AND THE ISLANDS
  
CITY           SKY/WX    TMP DP  RH WIND       PRES   REMARKS
FALMOUTH       NOT AVBL                                               
HYANNIS        PTCLDY    47  35  63 NE5       29.89F                  
CHATHAM        PTCLDY    49  38  65 E8        29.92F                  
PROVINCETOWN   PTCLDY    45  38  76 E7        29.93F                  
NANTUCKET      MOCLDY    47  39  74 NE10      29.87F                  
MARTHAS VNYRD  PTCLDY    48  38  68 NE10      29.89F                  
$$
 
MAZALL-080200-
CENTRAL AND WESTERN MASSACHUSETTS
  
CITY           SKY/WX    TMP DP  RH WIND       PRES   REMARKS
WORCESTER      CLOUDY    49  32  52 E6        29.92S                  
FITCHBURG      PTCLDY    50  29  44 CALM      29.94S                  
ORANGE         CLOUDY    52  35  52 VRB3      29.92S                  
SPRINGFIELD    CLOUDY    55  38  52 E8        29.89R                  
WESTFIELD      CLOUDY    53  44  71 S3        29.89S                  
NORTH ADAMS    CLOUDY    55  38  52 E10G20    29.87S                  
PITTSFIELD     MOCLDY    50  38  63 SE5       29.86S                  
$$
 
RIZALL-080200-
RHODE ISLAND
  
CITY           SKY/WX    TMP DP  RH WIND       PRES   REMARKS
PROVIDENCE     MOCLDY    51  33  50 CALM      29.91F                  
NEWPORT        PTCLDY    48  31  51 E6        29.89F                  
BLOCK ISLAND   PTCLDY    48  40  73 E8        29.90F                  
SMITHFIELD       N/A     48  35  60 E3        29.92S                  
WESTERLY       PTCLDY    47  39  74 NE5       29.89F                  
$$
 
CTZALL-080200-
CONNECTICUT
  
CITY           SKY/WX    TMP DP  RH WIND       PRES   REMARKS
BRADLEY INTL   MOCLDY    52  36  54 S6        29.89S                  
HARTFORD       PTCLDY    52  37  56 S5        29.90S                  
BRIDGEPORT     MOCLDY    52  45  77 E10       29.89S                  
DANBURY        MOCLDY    53  39  59 SE8       29.89S                  
GROTON         PTCLDY    50  39  66 E7        29.89F                  
NEW HAVEN      MOCLDY    52  44  74 E6        29.90S                  
CHESTER        FAIR      48  39  71 CALM      29.90S                  
MERIDEN        MOCLDY    51  35  54 SE3       29.91S                  
WILLIMANTIC    PTCLDY    52  35  52 CALM      29.90S                  
OXFORD         CLOUDY    49  42  77 E5        29.90S                  
$$

MEZ002-015-021-024-NHZ003-005-008-011-012-014-VTZ005-008-080200-
NORTHERN NEW ENGLAND
  
CITY           SKY/WX    TMP DP  RH WIND       PRES   REMARKS
PORTLAND ME    PTCLDY    47  32  56 CALM      29.97R                  
BANGOR ME      PTCLDY    49  33  54 S8        29.98R                  
CONCORD NH     PTCLDY    48  29  47 SE5       29.94R                  
MANCHESTER NH  PTCLDY    51  25  36 SE7       29.92S                  
NASHUA NH      CLEAR     48  28  46 CALM      29.94F                  
PORTSMOUTH NH  MOCLDY    46  32  59 SE6       29.96S                  
JAFFREY NH     PTCLDY    48  29  47 CALM      29.92S                  
KEENE NH       CLOUDY    51  35  54 VRB7      29.91S                  
BURLINGTON VT  CLOUDY    57  31  37 N5        29.86S                  
MT. WASHINGTON PTCLDY    28  23  80 E10         N/A  WCI  19          
$$

NYZ052-076-080200-
EASTERN NEW YORK
  
CITY           SKY/WX    TMP DP  RH WIND       PRES   REMARKS
ALBANY         CLOUDY    54  36  50 SE8       29.85S                  
NEW YORK CITY  MOCLDY    55  42  61 SE10      29.86R                  
$$
 
ANZALL-080200-
MARINE OBSERVATIONS
  
STATION/POSITION TIME  TEMP    WIND        PRES    VSBY  WAVE
                       AIR SEA DIR/SP/G                  HT/PER
                 (UTC) (F)     (DEG/KT/KT) (MB)    (MI)  (FT/S)
BOSTON BUOY      0040   47 48  120/ 10/ 12 1013.7F
BUZZARDS BAY     0000           70/ 12/ 13 1013.9F
NANTUCKET SOUND  0040      52                N/A
MASS BAY-STELLWA 0004   48     140/  8/ 10 1012.8F  1 7/8  1/ 3
ISLE OF SHOALS   0000   48     150/ 10/ 11 1013.9F
S OF BLOCK IS    0026      50                N/A           3/ 5
$$

......................KEY.........................
  SKY/WX - SKY CONDITION/PRESENT WEATHER
  TMP    - TEMPERATURE IN FAHRENHEIT
  DWPT   - DEWPOINT IN FAHRENHEIT
  RH     - RELATIVE HUMIDITY IN PERCENT
  WIND   - DIRECTION AND SPEED IN MPH
  PRES   - MEAN SEA LEVEL PRESSURE IN INCHES OF HG
  WCI    - WIND CHILL INDEX
  VSB    - VISIBILITY IN MILES
  HX     - HEAT INDEX
  TC     - TEMPERATURE IN CELSIUS
  VRB    - VARIABLE WIND DIRECTION
  N/A    - NOT AVAILABLE
  
      

Other recent Regional Weather Roundups

Wed May 12, 3:04am

Wed May 12, 2:04am

Wed May 12, 1:04am

Wed May 12, 12:05am

Tue May 11, 11:05pm

Tue May 11, 10:04pm

Tue May 11, 9:05pm

Tue May 11, 8:05pm

Tue May 11, 7:04pm

Tue May 11, 6:04pm

Tue May 11, 5:04pm

Tue May 11, 4:05pm

Tue May 11, 3:04pm

Tue May 11, 2:05pm

Tue May 11, 1:04pm

Tue May 11, 12:05pm

Tue May 11, 11:05am

Tue May 11, 10:04am

Tue May 11, 9:04am

Tue May 11, 8:04am

Tue May 11, 7:05am

Tue May 11, 6:04am

Tue May 11, 5:04am

Tue May 11, 4:04am

Tue May 11, 3:04am

Tue May 11, 2:04am

Tue May 11, 1:04am

Tue May 11, 12:04am

Mon May 10, 11:04pm

Mon May 10, 10:04pm

Mon May 10, 9:05pm

Mon May 10, 8:04pm

Mon May 10, 7:05pm

Mon May 10, 6:04pm

Mon May 10, 5:04pm

Mon May 10, 4:04pm

Mon May 10, 3:04pm

Mon May 10, 2:04pm

Mon May 10, 1:04pm

Mon May 10, 12:04pm

Mon May 10, 11:05am

Mon May 10, 10:04am

Mon May 10, 9:04am

Mon May 10, 8:04am

Mon May 10, 7:04am

Mon May 10, 6:04am

Mon May 10, 5:05am

Mon May 10, 4:04am

Mon May 10, 3:04am

Mon May 10, 2:04am

Mon May 10, 1:04am

Mon May 10, 12:04am

Sun May 9, 11:04pm

Sun May 9, 10:04pm

Sun May 9, 9:04pm

Sun May 9, 8:04pm

Sun May 9, 7:05pm

Sun May 9, 6:04pm

Sun May 9, 5:04pm

Sun May 9, 4:04pm

Sun May 9, 3:04pm

Sun May 9, 2:04pm

Sun May 9, 1:05pm

Sun May 9, 12:04pm

Sun May 9, 11:05am

Sun May 9, 10:04am

Sun May 9, 9:04am

Sun May 9, 8:04am

Sun May 9, 7:04am

Sun May 9, 6:04am

Sun May 9, 5:04am

Sun May 9, 4:04am

Sun May 9, 3:04am

Sun May 9, 2:04am

Sun May 9, 1:05am

Sun May 9, 12:04am

Sat May 8, 11:05pm

Sat May 8, 10:04pm

Sat May 8, 9:05pm

Sat May 8, 8:04pm

Sat May 8, 7:04pm

Sat May 8, 6:04pm

Sat May 8, 5:05pm

Sat May 8, 4:04pm

Sat May 8, 3:05pm

Sat May 8, 2:05pm

Sat May 8, 1:05pm

Sat May 8, 12:04pm

Sat May 8, 11:05am

Sat May 8, 10:04am

Sat May 8, 9:04am

Sat May 8, 8:04am

Sat May 8, 7:04am

Sat May 8, 6:04am

Sat May 8, 5:04am

Sat May 8, 4:04am

Sat May 8, 3:04am

Sat May 8, 2:04am

Sat May 8, 1:05am

Sat May 8, 12:04am

Fri May 7, 11:04pm

Fri May 7, 10:05pm

Fri May 7, 8:04pm

Fri May 7, 7:05pm

Fri May 7, 6:04pm

Fri May 7, 5:05pm

Fri May 7, 4:04pm

Fri May 7, 3:04pm

Fri May 7, 2:05pm

Fri May 7, 1:04pm

Fri May 7, 12:04pm

Fri May 7, 11:05am

Fri May 7, 10:04am

Fri May 7, 9:04am

Fri May 7, 8:05am

Fri May 7, 7:04am

Fri May 7, 6:04am

Fri May 7, 5:04am

Fri May 7, 4:04am

Fri May 7, 3:04am

Fri May 7, 2:05am

Fri May 7, 1:04am

Fri May 7, 12:05am

Thu May 6, 11:04pm

Thu May 6, 10:04pm

Thu May 6, 9:05pm

Thu May 6, 8:04pm

Thu May 6, 7:04pm

Thu May 6, 6:04pm

Thu May 6, 5:05pm

Thu May 6, 4:04pm

Thu May 6, 3:04pm

Thu May 6, 2:05pm

Thu May 6, 1:04pm

Thu May 6, 12:04pm

Thu May 6, 11:04am

Thu May 6, 10:04am

Thu May 6, 9:04am

Thu May 6, 8:04am

Thu May 6, 7:04am

Thu May 6, 6:04am

Thu May 6, 5:04am

Thu May 6, 4:04am

Thu May 6, 3:04am

Thu May 6, 2:05am

Thu May 6, 1:04am

Thu May 6, 12:05am

Wed May 5, 11:04pm

Wed May 5, 10:04pm

Wed May 5, 9:05pm

Wed May 5, 8:04pm

Wed May 5, 7:05pm

Wed May 5, 6:04pm

Wed May 5, 5:04pm

Wed May 5, 4:04pm

Wed May 5, 3:04pm

Wed May 5, 2:05pm

Wed May 5, 1:05pm

Wed May 5, 12:04pm

Wed May 5, 11:05am

Wed May 5, 10:04am

Wed May 5, 9:04am

Wed May 5, 8:04am

Wed May 5, 7:04am

Wed May 5, 6:05am

Wed May 5, 5:04am

Wed May 5, 4:04am

Meta data:

ID: ce6fd312-f5a8-48e3-87f1-75834ddf6747
Link: https://api.weather.gov/products/ce6fd312-f5a8-48e3-87f1-75834ddf6747